Flag for Germany Weather past 2 weeks in Varel, Lower Saxony, Germany

Now
32 °F

Partly sunny.


Feels Like: 21 °F
Forecast: 28 / 36 °F
Wind: 16 mph from East

Location: Wittmundhaven

Current Time: Dec 27, 2014 at 1:31:01 PM

Latest Report: Dec 27, 2014 at 12:20 PM


Visibility: N/A

Pressure: 29.74 "Hg

Humidity: 80%

Dew point: 27 °F

Location of VarelLocation

Historic Weather in Varel — Graph

°F

Varel temperature yesterday

Maximum temperature yesterday: 36 °F (at 12:20 PM)
Minimum temperature yesterday: 27 °F (at 6:20 AM)
Average temperature yesterday: 30 °F

Past Weeks' High & Low Weather Summary

 TemperatureHumidityPressure
High54 °F (Dec 18, 6:20 PM)100% (Dec 13, 10:20 PM)30.36 "Hg (Dec 13, 10:20 PM)
Low27 °F (Dec 26, 6:20 AM)57% (Dec 25, 12:20 PM)29.15 "Hg (Dec 12, 12:20 PM)
Average42 °F87%29.83 "Hg
* Reported Dec 12 12:20 PM — Dec 27 12:20 PM, Varel, Weather by CustomWeather, © 2014

Note: Actual official high and low records may vary slightly from our data, if they occured in-between our weather recording intervals... More about our weather records

Advertising

Varel weather history for previous 24 hours

 ConditionsComfort  
Time TempWeatherWind HumidityBarometerVisibility
12:20 PM
Dec 27
32 °FPartly sunny.16 mph80%29.74 "HgN/A
11:20 AM32 °FPartly sunny.12 mph87%29.74 "HgN/A
10:20 AM32 °FPartly sunny.16 mph87%29.74 "Hg6 mi
9:20 AM32 °FIce fog.17 mph87%29.74 "Hg3 mi
8:20 AM32 °FIce fog.15 mph93%29.74 "Hg3 mi
7:20 AM32 °FIce fog.15 mph93%29.77 "Hg2 mi
6:20 AM32 °FIce fog.13 mph100%29.80 "Hg1 mi
5:20 AM32 °FIce fog.14 mph93%29.83 "Hg1 mi
4:20 AM34 °FFog.10 mph93%29.89 "Hg1 mi
3:20 AM32 °FIce fog.9 mph100%29.95 "Hg1 mi
2:20 AM34 °FFog.9 mph93%29.98 "Hg1 mi
1:20 AM32 °FIce fog.8 mph100%30.01 "Hg1 mi
12:20 AM32 °FIce fog.9 mph100%30.07 "Hg1 mi
11:20 PM
Dec 26
30 °FIce fog.8 mph100%30.09 "Hg0 mi
10:20 PM30 °FIce fog.8 mph100%30.12 "Hg0 mi
9:20 PM30 °FIce fog.8 mph100%30.15 "Hg0 mi
8:20 PM30 °FIce fog.9 mph93%30.21 "Hg0 mi
7:20 PM28 °FIce fog.7 mph100%30.21 "Hg0 mi
6:20 PM28 °FIce fog.10 mph100%30.24 "Hg0 mi
5:20 PM28 °FIce fog.10 mph100%30.27 "Hg0 mi
4:20 PM30 °FIce fog.8 mph93%30.27 "Hg0 mi
4:01 PM30 °FIce fog.6 mph93%30.27 "Hg0 mi
3:20 PM34 °FScattered clouds.8 mph87%30.30 "HgN/A
2:20 PM36 °FScattered clouds.8 mph81%30.30 "HgN/A
1:20 PM36 °FPassing clouds.10 mph75%30.33 "HgN/A
Weather by CustomWeather, © 2014

See weather overviewHow to use our weather pages